Time,TemperatureF,DewpointF,PressureIn,WindDirection,WindDirectionDegrees,WindSpeedMPH,WindSpeedGustMPH,Humidity,HourlyPrecipIn,Conditions,Clouds,dailyrainin,SoftwareType,DateUTC
2013-01-27 00:00:00,24.6,18.1,30.29,ESE,112,0.0,0.0,76,0.00,CLR,SKC,0.00,WeatherDisplay:10.37,2013-01-27 05:00:00,
2013-01-27 00:01:00,24.6,18.1,30.28,ESE,112,0.0,0.0,76,0.00,CLR,SKC,0.00,WeatherDisplay:10.37,2013-01-27 05:01:00,
2013-01-27 00:02:00,24.6,18.1,30.28,ESE,112,0.0,0.0,76,0.00,CLR,SKC,0.00,WeatherDisplay:10.37,2013-01-27 05:02:00,
2013-01-27 00:07:00,24.6,18.1,30.28,East,90,0.4,1.1,76,0.00,CLR,SKC,0.00,WeatherDisplay:10.37,2013-01-27 05:07:00,
2013-01-27 00:12:00,24.4,18.0,30.28,ESE,112,0.3,1.1,76,0.00,CLR,SKC,0.00,WeatherDisplay:10.37,2013-01-27 05:12:00,
2013-01-27 00:17:00,24.4,18.0,30.28,ESE,112,0.0,0.0,76,0.00,CLR,SKC,0.00,WeatherDisplay:10.37,2013-01-27 05:17:00,
2013-01-27 00:22:00,24.4,18.0,30.28,ESE,112,0.4,1.3,76,0.00,CLR,SKC,0.00,WeatherDisplay:10.37,2013-01-27 05:22:00,
2013-01-27 00:27:00,24.4,18.3,30.29,ESE,112,0.0,2.3,77,0.00,CLR,SKC,0.00,WeatherDisplay:10.37,2013-01-27 05:27:00,
2013-01-27 00:32:00,24.4,18.3,30.28,SE,135,2.6,3.5,77,0.00,CLR,SKC,0.00,WeatherDisplay:10.37,2013-01-27 05:32:00,
2013-01-27 00:37:00,24.6,18.4,30.29,SE,135,1.7,3.5,77,0.00,CLR,SKC,0.00,WeatherDisplay:10.37,2013-01-27 05:37:00,
2013-01-27 00:42:00,24.6,18.4,30.29,SE,135,1.8,2.3,77,0.00,CLR,SKC,0.00,WeatherDisplay:10.37,2013-01-27 05:42:00,
2013-01-27 00:47:00,24.6,18.1,30.29,ENE,68,2.2,2.3,76,0.00,CLR,SKC,0.00,WeatherDisplay:10.37,2013-01-27 05:47:00,
2013-01-27 00:52:00,24.6,18.1,30.30,SE,135,0.9,1.1,76,0.00,CLR,SKC,0.00,WeatherDisplay:10.37,2013-01-27 05:52:00,
2013-01-27 00:57:00,25.0,18.5,30.30,East,90,1.2,3.5,76,0.00,CLR,SKC,0.00,WeatherDisplay:10.37,2013-01-27 05:57:00,
2013-01-27 01:02:00,25.0,18.5,30.30,ESE,112,0.2,4.6,76,0.00,CLR,SKC,0.00,WeatherDisplay:10.37,2013-01-27 06:02:00,
2013-01-27 01:07:00,25.0,18.5,30.30,SE,135,2.0,4.0,76,0.00,CLR,SKC,0.00,WeatherDisplay:10.37,2013-01-27 06:07:00,
2013-01-27 01:12:00,25.2,18.3,30.30,East,90,0.3,2.3,75,0.00,CLR,SKC,0.00,WeatherDisplay:10.37,2013-01-27 06:12:00,
2013-01-27 01:17:00,25.2,18.3,30.30,ESE,112,3.5,3.5,75,0.00,CLR,SKC,0.00,WeatherDisplay:10.37,2013-01-27 06:17:00,
2013-01-27 01:22:00,25.2,18.3,30.30,SE,135,3.8,3.8,75,0.00,CLR,SKC,0.00,WeatherDisplay:10.37,2013-01-27 06:22:00,
2013-01-27 01:27:00,25.3,18.5,30.29,SE,135,0.1,3.5,75,0.00,CLR,SKC,0.00,WeatherDisplay:10.37,2013-01-27 06:27:00,
2013-01-27 01:32:00,25.3,18.5,30.29,SE,135,2.4,4.6,75,0.00,CLR,SKC,0.00,WeatherDisplay:10.37,2013-01-27 06:32:00,
2013-01-27 01:37:00,25.3,18.5,30.29,East,90,4.1,8.1,75,0.00,CLR,SKC,0.00,WeatherDisplay:10.37,2013-01-27 06:37:00,
2013-01-27 01:42:00,25.3,18.5,30.29,SE,135,3.4,6.9,75,0.00,CLR,SKC,0.00,WeatherDisplay:10.37,2013-01-27 06:42:00,
2013-01-27 01:47:00,25.3,18.5,30.30,ESE,112,0.8,3.5,75,0.00,CLR,SKC,0.00,WeatherDisplay:10.37,2013-01-27 06:47:00,
2013-01-27 01:52:00,25.3,18.5,30.29,SE,135,3.2,4.6,75,0.00,CLR,SKC,0.00,WeatherDisplay:10.37,2013-01-27 06:52:00,
2013-01-27 01:57:00,25.3,18.2,30.29,SE,135,5.3,5.3,74,0.00,CLR,SKC,0.00,WeatherDisplay:10.37,2013-01-27 06:57:00,
2013-01-27 02:02:00,25.3,18.2,30.30,SSE,158,4.6,8.1,74,0.00,CLR,SKC,0.00,WeatherDisplay:10.37,2013-01-27 07:02:00,
2013-01-27 02:07:00,25.3,18.2,30.30,ESE,112,4.0,8.1,74,0.00,CLR,SKC,0.00,WeatherDisplay:10.37,2013-01-27 07:07:00,
2013-01-27 02:13:00,25.2,18.0,30.30,ESE,112,2.8,8.1,74,0.00,CLR,SKC,0.00,WeatherDisplay:10.37,2013-01-27 07:13:00,
2013-01-27 02:18:00,25.2,18.0,30.30,SE,135,3.3,6.0,74,0.00,CLR,SKC,0.00,WeatherDisplay:10.37,2013-01-27 07:18:00,
2013-01-27 02:23:00,25.2,18.0,30.30,SE,135,3.4,6.9,74,0.00,CLR,SKC,0.00,WeatherDisplay:10.37,2013-01-27 07:23:00,
2013-01-27 02:28:00,25.2,18.0,30.30,ESE,112,2.0,8.1,74,0.00,CLR,SKC,0.00,WeatherDisplay:10.37,2013-01-27 07:28:00,
2013-01-27 02:33:00,25.2,18.0,30.30,ESE,112,1.1,3.5,74,0.00,CLR,SKC,0.00,WeatherDisplay:10.37,2013-01-27 07:33:00,
2013-01-27 02:38:00,25.2,18.0,30.30,ESE,112,1.9,3.5,74,0.00,CLR,SKC,0.00,WeatherDisplay:10.37,2013-01-27 07:38:00,
2013-01-27 02:43:00,25.2,18.0,30.30,SSE,158,1.9,3.5,74,0.00,CLR,SKC,0.00,WeatherDisplay:10.37,2013-01-27 07:43:00,
2013-01-27 02:48:00,25.2,18.0,30.30,SSE,158,5.2,5.2,74,0.00,CLR,SKC,0.00,WeatherDisplay:10.37,2013-01-27 07:48:00,
2013-01-27 02:53:00,25.2,18.0,30.31,SSE,158,2.8,4.6,74,0.00,CLR,SKC,0.00,WeatherDisplay:10.37,2013-01-27 07:53:00,
2013-01-27 02:58:00,25.2,18.0,30.30,ESE,112,1.7,3.5,74,0.00,CLR,SKC,0.00,WeatherDisplay:10.37,2013-01-27 07:58:00,
2013-01-27 03:03:00,25.2,18.0,30.31,SE,135,2.0,3.8,74,0.00,CLR,SKC,0.00,WeatherDisplay:10.37,2013-01-27 08:03:00,
2013-01-27 03:08:00,25.2,18.0,30.32,SE,135,4.0,5.1,74,0.00,CLR,SKC,0.00,WeatherDisplay:10.37,2013-01-27 08:08:00,
2013-01-27 03:13:00,25.0,17.9,30.31,East,90,3.3,3.5,74,0.00,CLR,SKC,0.00,WeatherDisplay:10.37,2013-01-27 08:13:00,
2013-01-27 03:18:00,25.0,17.9,30.31,SE,135,1.5,3.5,74,0.00,CLR,SKC,0.00,WeatherDisplay:10.37,2013-01-27 08:18:00,
2013-01-27 03:23:00,25.0,17.9,30.31,SE,135,3.0,4.6,74,0.00,CLR,SKC,0.00,WeatherDisplay:10.37,2013-01-27 08:23:00,
2013-01-27 03:28:00,24.6,17.5,30.31,ESE,112,2.0,3.5,74,0.00,CLR,SKC,0.00,WeatherDisplay:10.37,2013-01-27 08:28:00,
2013-01-27 03:33:00,24.6,17.5,30.31,SE,135,0.3,2.3,74,0.00,CLR,SKC,0.00,WeatherDisplay:10.37,2013-01-27 08:33:00,
2013-01-27 03:38:00,24.4,17.3,30.31,SE,135,1.6,4.6,74,0.00,CLR,SKC,0.00,WeatherDisplay:10.37,2013-01-27 08:38:00,
2013-01-27 03:43:00,24.4,17.3,30.31,SE,135,0.6,2.3,74,0.00,CLR,SKC,0.00,WeatherDisplay:10.37,2013-01-27 08:43:00,
2013-01-27 03:48:00,24.1,17.0,30.31,SE,135,1.4,3.4,74,0.00,CLR,SKC,0.00,WeatherDisplay:10.37,2013-01-27 08:48:00,
2013-01-27 03:53:00,23.9,17.1,30.31,SE,135,0.7,3.5,75,0.00,CLR,SKC,0.00,WeatherDisplay:10.37,2013-01-27 08:53:00,
2013-01-27 03:58:00,23.7,17.0,30.31,East,90,3.0,3.5,75,0.00,CLR,SKC,0.00,WeatherDisplay:10.37,2013-01-27 08:58:00,
2013-01-27 04:03:00,23.7,17.0,30.31,East,90,0.2,1.6,75,0.00,CLR,SKC,0.00,WeatherDisplay:10.37,2013-01-27 09:03:00,
2013-01-27 04:08:00,23.7,17.0,30.31,ESE,112,0.2,1.1,75,0.00,CLR,SKC,0.00,WeatherDisplay:10.37,2013-01-27 09:08:00,
2013-01-27 04:13:00,23.5,16.8,30.31,ESE,112,0.7,1.1,75,0.00,CLR,SKC,0.00,WeatherDisplay:10.37,2013-01-27 09:13:00,
2013-01-27 04:18:00,23.5,16.8,30.31,ESE,112,0.6,2.3,75,0.00,CLR,SKC,0.00,WeatherDisplay:10.37,2013-01-27 09:18:00,
2013-01-27 04:23:00,23.4,16.6,30.31,ESE,112,0.1,0.0,75,0.00,CLR,SKC,0.00,WeatherDisplay:10.37,2013-01-27 09:23:00,
2013-01-27 04:28:00,23.2,16.4,30.31,ESE,112,1.8,3.5,75,0.00,CLR,SKC,0.00,WeatherDisplay:10.37,2013-01-27 09:28:00,
2013-01-27 04:33:00,23.0,16.6,30.31,ESE,112,2.1,3.5,76,0.00,CLR,SKC,0.00,WeatherDisplay:10.37,2013-01-27 09:33:00,
2013-01-27 04:38:00,22.8,16.4,30.31,ESE,112,1.6,2.3,76,0.00,CLR,SKC,0.00,WeatherDisplay:10.37,2013-01-27 09:38:00,
2013-01-27 04:43:00,22.8,16.4,30.31,ESE,112,1.4,3.5,76,0.00,CLR,SKC,0.00,WeatherDisplay:10.37,2013-01-27 09:43:00,
2013-01-27 04:48:00,22.8,16.4,30.30,East,90,0.5,2.3,76,0.00,CLR,SKC,0.00,WeatherDisplay:10.37,2013-01-27 09:48:00,
2013-01-27 04:53:00,22.6,16.2,30.30,SE,135,3.1,4.6,76,0.00,CLR,SKC,0.00,WeatherDisplay:10.37,2013-01-27 09:53:00,
2013-01-27 04:58:00,22.6,16.2,30.29,SE,135,2.5,3.5,76,0.00,CLR,SKC,0.00,WeatherDisplay:10.37,2013-01-27 09:58:00,
2013-01-27 05:03:00,22.6,16.2,30.29,SE,135,2.6,4.6,76,0.00,CLR,SKC,0.00,WeatherDisplay:10.37,2013-01-27 10:03:00,
2013-01-27 05:08:00,22.5,16.3,30.30,ESE,112,1.9,4.6,77,0.00,CLR,SKC,0.00,WeatherDisplay:10.37,2013-01-27 10:08:00,
2013-01-27 05:13:00,22.5,16.3,30.30,ESE,112,0.6,2.3,77,0.00,CLR,SKC,0.00,WeatherDisplay:10.37,2013-01-27 10:13:00,
2013-01-27 05:18:00,22.3,16.2,30.30,ESE,112,0.1,1.1,77,0.00,CLR,SKC,0.00,WeatherDisplay:10.37,2013-01-27 10:18:00,
2013-01-27 05:23:00,22.3,16.2,30.30,ESE,112,1.2,2.3,77,0.00,CLR,SKC,0.00,WeatherDisplay:10.37,2013-01-27 10:23:00,
2013-01-27 05:28:00,22.3,16.2,30.29,SE,135,1.2,3.5,77,0.00,CLR,SKC,0.00,WeatherDisplay:10.37,2013-01-27 10:28:00,
2013-01-27 05:33:00,22.3,16.2,30.29,SE,135,4.2,4.6,77,0.00,CLR,SKC,0.00,WeatherDisplay:10.37,2013-01-27 10:33:00,
2013-01-27 05:38:00,22.1,16.0,30.29,SE,135,1.0,3.5,77,0.00,CLR,SKC,0.00,WeatherDisplay:10.37,2013-01-27 10:38:00,
2013-01-27 05:43:00,22.1,16.0,30.30,East,90,1.3,3.5,77,0.00,CLR,SKC,0.00,WeatherDisplay:10.37,2013-01-27 10:43:00,
2013-01-27 05:48:00,22.1,16.0,30.29,ENE,68,3.5,5.8,77,0.00,CLR,SKC,0.00,WeatherDisplay:10.37,2013-01-27 10:48:00,
2013-01-27 05:53:00,22.1,16.0,30.29,SE,135,1.6,10.4,77,0.00,CLR,SKC,0.00,WeatherDisplay:10.37,2013-01-27 10:53:00,
2013-01-27 05:58:00,22.1,16.0,30.30,ESE,112,1.5,3.5,77,0.00,CLR,SKC,0.00,WeatherDisplay:10.37,2013-01-27 10:58:00,
2013-01-27 06:03:00,22.1,16.0,30.30,SE,135,1.1,2.3,77,0.00,CLR,SKC,0.00,WeatherDisplay:10.37,2013-01-27 11:03:00,
2013-01-27 06:08:00,22.1,16.0,30.30,SE,135,0.0,0.0,77,0.00,CLR,SKC,0.00,WeatherDisplay:10.37,2013-01-27 11:08:00,
2013-01-27 06:13:00,22.3,16.2,30.30,East,90,0.8,4.6,77,0.00,CLR,SKC,0.00,WeatherDisplay:10.37,2013-01-27 11:13:00,
2013-01-27 06:18:00,22.1,16.3,30.30,ESE,112,1.9,3.5,78,0.00,CLR,SKC,0.00,WeatherDisplay:10.37,2013-01-27 11:18:00,
2013-01-27 06:23:00,22.1,16.3,30.30,SE,135,2.5,4.6,78,0.00,CLR,SKC,0.00,WeatherDisplay:10.37,2013-01-27 11:23:00,
2013-01-27 06:28:00,22.3,16.5,30.30,ESE,112,3.3,8.1,78,0.00,CLR,SKC,0.00,WeatherDisplay:10.37,2013-01-27 11:28:00,
2013-01-27 06:33:00,22.3,16.5,30.30,SE,135,2.0,3.5,78,0.00,CLR,SKC,0.00,WeatherDisplay:10.37,2013-01-27 11:33:00,
2013-01-27 06:38:00,22.6,16.8,30.31,SE,135,3.9,5.8,78,0.00,CLR,SKC,0.00,WeatherDisplay:10.37,2013-01-27 11:38:00,
2013-01-27 06:43:00,22.6,16.8,30.31,East,90,2.5,5.8,78,0.00,CLR,SKC,0.00,WeatherDisplay:10.37,2013-01-27 11:43:00,
2013-01-27 06:48:00,22.6,16.8,30.31,SE,135,2.3,3.5,78,0.00,CLR,SKC,0.00,WeatherDisplay:10.37,2013-01-27 11:48:00,
2013-01-27 06:53:00,22.6,16.8,30.30,ESE,112,3.8,4.6,78,0.00,CLR,SKC,0.00,WeatherDisplay:10.37,2013-01-27 11:53:00,
2013-01-27 06:58:00,22.8,17.0,30.31,SE,135,3.2,3.6,78,0.00,CLR,SKC,0.00,WeatherDisplay:10.37,2013-01-27 11:58:00,
2013-01-27 07:03:00,22.8,17.0,30.30,SE,135,2.4,3.5,78,0.00,CLR,SKC,0.00,WeatherDisplay:10.37,2013-01-27 12:03:00,
2013-01-27 07:08:00,22.8,17.0,30.31,East,90,3.3,5.8,78,0.00,CLR,SKC,0.00,WeatherDisplay:10.37,2013-01-27 12:08:00,
2013-01-27 07:13:00,22.8,17.0,30.30,ESE,112,1.9,4.6,78,0.00,CLR,SKC,0.00,WeatherDisplay:10.37,2013-01-27 12:13:00,
2013-01-27 07:18:00,22.8,17.0,30.30,SE,135,0.8,3.5,78,0.00,CLR,SKC,0.00,WeatherDisplay:10.37,2013-01-27 12:18:00,
2013-01-27 07:23:00,22.8,17.0,30.30,ESE,112,1.9,3.5,78,0.00,CLR,SKC,0.00,WeatherDisplay:10.37,2013-01-27 12:23:00,
2013-01-27 07:28:00,22.8,17.0,30.30,ESE,112,2.6,3.5,78,0.00,CLR,SKC,0.00,WeatherDisplay:10.37,2013-01-27 12:28:00,
2013-01-27 07:33:00,22.8,17.0,30.29,SE,135,3.7,11.5,78,0.00,CLR,SKC,0.00,WeatherDisplay:10.37,2013-01-27 12:33:00,
2013-01-27 07:38:00,22.8,17.0,30.29,SE,135,1.9,5.8,78,0.00,CLR,SKC,0.00,WeatherDisplay:10.37,2013-01-27 12:38:00,
2013-01-27 07:43:00,22.8,17.0,30.29,SE,135,4.0,5.1,78,0.00,CLR,SKC,0.00,WeatherDisplay:10.37,2013-01-27 12:43:00,
2013-01-27 07:48:00,23.0,17.2,30.28,East,90,1.8,4.6,78,0.00,CLR,SKC,0.00,WeatherDisplay:10.37,2013-01-27 12:48:00,
2013-01-27 07:53:00,23.2,17.3,30.29,ESE,112,1.7,6.9,78,0.00,CLR,SKC,0.00,WeatherDisplay:10.37,2013-01-27 12:53:00,
2013-01-27 07:58:00,23.2,17.3,30.28,East,90,2.0,6.9,78,0.00,CLR,SKC,0.00,WeatherDisplay:10.37,2013-01-27 12:58:00,
2013-01-27 08:03:00,23.2,17.3,30.28,SE,135,3.8,4.6,78,0.00,CLR,SKC,0.00,WeatherDisplay:10.37,2013-01-27 13:03:00,
2013-01-27 08:08:00,23.4,17.5,30.27,ESE,112,3.9,8.1,78,0.00,CLR,SKC,0.00,WeatherDisplay:10.37,2013-01-27 13:08:00,
2013-01-27 08:13:00,23.5,17.7,30.27,ESE,112,3.9,8.1,78,0.00,CLR,SKC,0.00,WeatherDisplay:10.37,2013-01-27 13:13:00,
2013-01-27 08:18:00,23.5,17.7,30.27,East,90,4.1,6.9,78,0.00,CLR,SKC,0.00,WeatherDisplay:10.37,2013-01-27 13:18:00,
2013-01-27 08:23:00,23.7,17.9,30.27,ESE,112,2.8,4.6,78,0.00,CLR,SKC,0.00,WeatherDisplay:10.37,2013-01-27 13:23:00,
2013-01-27 08:28:00,23.7,17.9,30.27,SE,135,5.8,10.4,78,0.00,CLR,SKC,0.00,WeatherDisplay:10.37,2013-01-27 13:28:00,
2013-01-27 08:33:00,23.9,18.0,30.28,SE,135,3.2,6.9,78,0.00,CLR,SKC,0.00,WeatherDisplay:10.37,2013-01-27 13:33:00,
2013-01-27 08:38:00,24.1,18.2,30.27,SE,135,6.3,9.2,78,0.00,CLR,SKC,0.00,WeatherDisplay:10.37,2013-01-27 13:38:00,
2013-01-27 08:43:00,24.3,18.4,30.27,SE,135,4.4,8.1,78,0.00,CLR,SKC,0.00,WeatherDisplay:10.37,2013-01-27 13:43:00,
2013-01-27 08:48:00,24.4,18.6,30.27,SE,135,2.9,5.8,78,0.00,CLR,SKC,0.00,WeatherDisplay:10.37,2013-01-27 13:48:00,
2013-01-27 08:53:00,24.6,18.7,30.27,SE,135,3.0,4.6,78,0.00,CLR,SKC,0.00,WeatherDisplay:10.37,2013-01-27 13:53:00,
2013-01-27 08:58:00,24.6,18.7,30.27,SE,135,3.0,4.6,78,0.00,CLR,SKC,0.00,WeatherDisplay:10.37,2013-01-27 13:58:00,
2013-01-27 09:03:00,24.6,18.4,30.27,SE,135,4.3,5.8,77,0.00,CLR,SKC,0.00,WeatherDisplay:10.37,2013-01-27 14:03:00,
2013-01-27 09:08:00,25.0,18.8,30.27,SE,135,5.0,6.9,77,0.00,CLR,SKC,0.00,WeatherDisplay:10.37,2013-01-27 14:08:00,
2013-01-27 09:13:00,25.0,18.8,30.28,ESE,112,0.4,3.5,77,0.00,CLR,SKC,0.00,WeatherDisplay:10.37,2013-01-27 14:13:00,
2013-01-27 09:18:00,25.3,19.1,30.27,SE,135,4.0,5.8,77,0.00,CLR,SKC,0.00,WeatherDisplay:10.37,2013-01-27 14:18:00,
2013-01-27 09:23:00,25.3,19.1,30.27,SE,135,3.1,5.1,77,0.00,CLR,SKC,0.00,WeatherDisplay:10.37,2013-01-27 14:23:00,
2013-01-27 09:28:00,25.5,19.3,30.27,SE,135,4.4,5.8,77,0.00,CLR,SKC,0.00,WeatherDisplay:10.37,2013-01-27 14:28:00,
2013-01-27 09:33:00,25.7,19.5,30.27,SSE,158,2.0,7.8,77,0.00,CLR,SKC,0.00,WeatherDisplay:10.37,2013-01-27 14:33:00,
2013-01-27 09:38:00,25.9,19.7,30.28,SE,135,4.4,6.9,77,0.00,CLR,SKC,0.00,WeatherDisplay:10.37,2013-01-27 14:38:00,
2013-01-27 09:43:00,26.2,19.7,30.27,SE,135,5.8,9.2,76,0.00,CLR,SKC,0.00,WeatherDisplay:10.37,2013-01-27 14:43:00,
2013-01-27 09:48:00,26.2,19.7,30.28,SE,135,1.4,3.5,76,0.00,CLR,SKC,0.00,WeatherDisplay:10.37,2013-01-27 14:48:00,
2013-01-27 09:53:00,26.6,20.1,30.28,ESE,112,2.7,3.5,76,0.00,CLR,SKC,0.00,WeatherDisplay:10.37,2013-01-27 14:53:00,
2013-01-27 09:58:00,26.8,20.2,30.27,ESE,112,3.9,5.8,76,0.00,CLR,SKC,0.00,WeatherDisplay:10.37,2013-01-27 14:58:00,
2013-01-27 10:03:00,27.0,20.4,30.27,East,90,3.4,4.6,76,0.00,CLR,SKC,0.00,WeatherDisplay:10.37,2013-01-27 15:03:00,
2013-01-27 10:08:00,27.1,20.6,30.27,SE,135,1.2,4.6,76,0.00,CLR,SKC,0.00,WeatherDisplay:10.37,2013-01-27 15:08:00,
2013-01-27 10:13:00,27.5,20.9,30.27,SE,135,1.5,5.8,76,0.00,CLR,SKC,0.00,WeatherDisplay:10.37,2013-01-27 15:13:00,
2013-01-27 10:18:00,28.0,21.4,30.26,ESE,112,2.1,4.6,76,0.00,CLR,SKC,0.00,WeatherDisplay:10.37,2013-01-27 15:18:00,
2013-01-27 10:23:00,28.0,21.1,30.26,SSE,158,3.1,6.9,75,0.00,CLR,SKC,0.00,WeatherDisplay:10.37,2013-01-27 15:23:00,
2013-01-27 10:28:00,28.2,21.3,30.27,SE,135,4.2,5.8,75,0.00,CLR,SKC,0.00,WeatherDisplay:10.37,2013-01-27 15:28:00,
2013-01-27 10:33:00,28.6,21.7,30.28,SE,135,3.2,8.1,75,0.00,CLR,SKC,0.00,WeatherDisplay:10.37,2013-01-27 15:33:00,
2013-01-27 10:38:00,28.8,21.5,30.28,SSE,158,3.1,8.3,74,0.00,CLR,SKC,0.00,WeatherDisplay:10.37,2013-01-27 15:38:00,
2013-01-27 10:43:00,28.9,21.7,30.28,SE,135,4.7,9.2,74,0.00,CLR,SKC,0.00,WeatherDisplay:10.37,2013-01-27 15:43:00,
2013-01-27 10:48:00,29.1,21.9,30.28,SE,135,5.8,6.9,74,0.00,CLR,SKC,0.00,WeatherDisplay:10.37,2013-01-27 15:48:00,
2013-01-27 10:53:00,29.5,22.2,30.27,SE,135,3.3,5.8,74,0.00,CLR,SKC,0.00,WeatherDisplay:10.37,2013-01-27 15:53:00,
2013-01-27 10:58:00,29.7,22.4,30.27,SSE,158,4.3,5.8,74,0.00,CLR,SKC,0.00,WeatherDisplay:10.37,2013-01-27 15:58:00,
2013-01-27 11:03:00,29.8,22.6,30.28,ESE,112,3.0,4.6,74,0.00,CLR,SKC,0.00,WeatherDisplay:10.37,2013-01-27 16:03:00,
2013-01-27 11:08:00,30.0,22.7,30.28,SE,135,2.9,4.6,74,0.00,CLR,SKC,0.00,WeatherDisplay:10.37,2013-01-27 16:08:00,
2013-01-27 11:13:00,30.4,23.1,30.27,SSE,158,4.1,4.6,74,0.00,CLR,SKC,0.00,WeatherDisplay:10.37,2013-01-27 16:13:00,
2013-01-27 11:18:00,30.9,23.6,30.27,ESE,112,3.7,10.4,74,0.00,CLR,SKC,0.00,WeatherDisplay:10.37,2013-01-27 16:18:00,
2013-01-27 11:23:00,31.3,23.6,30.27,East,90,4.9,6.9,73,0.00,CLR,SKC,0.00,WeatherDisplay:10.37,2013-01-27 16:23:00,
2013-01-27 11:28:00,31.6,24.0,30.27,SE,135,3.1,3.5,73,0.00,CLR,SKC,0.00,WeatherDisplay:10.37,2013-01-27 16:28:00,
2013-01-27 11:33:00,31.6,23.6,30.27,SE,135,2.0,11.5,72,0.00,CLR,SKC,0.00,WeatherDisplay:10.37,2013-01-27 16:33:00,
2013-01-27 11:38:00,31.8,23.8,30.26,SE,135,3.4,6.9,72,0.00,CLR,SKC,0.00,WeatherDisplay:10.37,2013-01-27 16:38:00,
2013-01-27 11:43:00,31.8,23.8,30.26,SE,135,2.6,3.5,72,0.00,CLR,SKC,0.00,WeatherDisplay:10.37,2013-01-27 16:43:00,
2013-01-27 11:48:00,32.2,24.2,30.26,SE,135,1.1,3.5,72,0.00,CLR,SKC,0.00,WeatherDisplay:10.37,2013-01-27 16:48:00,
2013-01-27 11:53:00,32.4,24.0,30.26,SE,135,1.4,3.5,71,0.00,CLR,SKC,0.00,WeatherDisplay:10.37,2013-01-27 16:53:00,
2013-01-27 11:58:00,32.5,24.2,30.26,SSE,158,4.3,6.9,71,0.00,CLR,SKC,0.00,WeatherDisplay:10.37,2013-01-27 16:58:00,
2013-01-27 12:03:00,32.5,24.2,30.26,SE,135,3.6,6.9,71,0.00,CLR,SKC,0.00,WeatherDisplay:10.37,2013-01-27 17:03:00,
2013-01-27 12:08:00,32.5,24.2,30.25,SE,135,7.0,10.4,71,0.00,CLR,SKC,0.00,WeatherDisplay:10.37,2013-01-27 17:08:00,
2013-01-27 12:13:00,32.2,23.5,30.25,SE,135,3.5,6.9,70,0.00,CLR,SKC,0.00,WeatherDisplay:10.37,2013-01-27 17:13:00,
2013-01-27 12:18:00,32.2,23.5,30.26,SE,135,5.6,8.1,70,0.00,CLR,SKC,0.00,WeatherDisplay:10.37,2013-01-27 17:18:00,
2013-01-27 12:23:00,32.2,23.8,30.25,SE,135,2.7,4.2,71,0.00,CLR,SKC,0.00,WeatherDisplay:10.37,2013-01-27 17:23:00,
2013-01-27 12:28:00,32.2,23.8,30.24,SE,135,2.5,3.5,71,0.00,CLR,SKC,0.00,WeatherDisplay:10.37,2013-01-27 17:28:00,
2013-01-27 12:33:00,32.2,23.8,30.23,SE,135,4.9,6.9,71,0.00,CLR,SKC,0.00,WeatherDisplay:10.37,2013-01-27 17:33:00,
2013-01-27 12:38:00,32.4,24.0,30.23,ENE,68,3.8,6.9,71,0.00,CLR,SKC,0.00,WeatherDisplay:10.37,2013-01-27 17:38:00,
2013-01-27 12:43:00,32.7,24.3,30.23,ESE,112,5.1,6.9,71,0.00,CLR,SKC,0.00,WeatherDisplay:10.37,2013-01-27 17:43:00,
2013-01-27 12:48:00,32.9,24.2,30.21,SE,135,4.5,6.9,70,0.00,CLR,SKC,0.00,WeatherDisplay:10.37,2013-01-27 17:48:00,
2013-01-27 12:53:00,32.9,24.2,30.21,ESE,112,4.6,6.9,70,0.00,CLR,SKC,0.00,WeatherDisplay:10.37,2013-01-27 17:53:00,
2013-01-27 12:58:00,33.1,24.4,30.20,ESE,112,8.1,12.7,70,0.00,CLR,SKC,0.00,WeatherDisplay:10.37,2013-01-27 17:58:00,
2013-01-27 13:03:00,33.3,24.5,30.20,ESE,112,3.0,4.6,70,0.00,CLR,SKC,0.00,WeatherDisplay:10.37,2013-01-27 18:03:00,
2013-01-27 13:08:00,33.6,24.9,30.19,East,90,5.2,5.2,70,0.00,CLR,SKC,0.00,WeatherDisplay:10.37,2013-01-27 18:08:00,
2013-01-27 13:13:00,33.6,24.9,30.19,East,90,3.3,5.8,70,0.00,CLR,SKC,0.00,WeatherDisplay:10.37,2013-01-27 18:13:00,
2013-01-27 13:18:00,33.8,25.0,30.18,ESE,112,3.4,5.8,70,0.00,CLR,SKC,0.00,WeatherDisplay:10.37,2013-01-27 18:18:00,
2013-01-27 13:23:00,34.2,25.4,30.18,ESE,112,2.7,4.6,70,0.00,CLR,SKC,0.00,WeatherDisplay:10.37,2013-01-27 18:23:00,
2013-01-27 13:28:00,34.3,25.2,30.19,ESE,112,4.0,5.8,69,0.00,CLR,SKC,0.00,WeatherDisplay:10.37,2013-01-27 18:28:00,
2013-01-27 13:33:00,34.3,25.2,30.18,SE,135,6.8,8.1,69,0.00,CLR,SKC,0.00,WeatherDisplay:10.37,2013-01-27 18:33:00,
2013-01-27 13:38:00,34.2,25.0,30.16,SE,135,3.0,5.8,69,0.00,CLR,SKC,0.00,WeatherDisplay:10.37,2013-01-27 18:38:00,
2013-01-27 13:43:00,34.2,25.0,30.16,SE,135,5.6,10.4,69,0.00,CLR,SKC,0.00,WeatherDisplay:10.37,2013-01-27 18:43:00,
2013-01-27 13:48:00,34.3,25.2,30.16,SSE,158,3.6,9.2,69,0.00,CLR,SKC,0.00,WeatherDisplay:10.37,2013-01-27 18:48:00,
2013-01-27 13:53:00,34.3,25.2,30.15,SE,135,4.3,9.2,69,0.00,CLR,SKC,0.00,WeatherDisplay:10.37,2013-01-27 18:53:00,
2013-01-27 13:58:00,34.3,25.2,30.15,SSE,158,4.1,6.7,69,0.00,CLR,SKC,0.00,WeatherDisplay:10.37,2013-01-27 18:58:00,
2013-01-27 14:03:00,34.3,25.2,30.14,ESE,112,5.8,11.5,69,0.00,CLR,SKC,0.00,WeatherDisplay:10.37,2013-01-27 19:03:00,
2013-01-27 14:08:00,34.3,25.6,30.14,SE,135,3.8,6.9,70,0.00,CLR,SKC,0.00,WeatherDisplay:10.37,2013-01-27 19:08:00,
2013-01-27 14:13:00,34.3,25.6,30.14,ESE,112,5.5,9.2,70,0.00,CLR,SKC,0.00,WeatherDisplay:10.37,2013-01-27 19:13:00,
2013-01-27 14:18:00,34.2,25.4,30.14,ESE,112,5.0,9.2,70,0.00,CLR,SKC,0.00,WeatherDisplay:10.37,2013-01-27 19:18:00,
2013-01-27 14:23:00,34.0,25.2,30.13,SE,135,5.4,6.9,70,0.00,CLR,SKC,0.00,WeatherDisplay:10.37,2013-01-27 19:23:00,
2013-01-27 14:28:00,34.0,25.2,30.13,SE,135,4.5,8.1,70,0.00,CLR,SKC,0.00,WeatherDisplay:10.37,2013-01-27 19:28:00,
2013-01-27 14:33:00,33.6,25.2,30.11,SSE,158,4.2,8.1,71,0.00,CLR,SKC,0.00,WeatherDisplay:10.37,2013-01-27 19:33:00,
2013-01-27 14:38:00,33.8,25.4,30.11,ESE,112,6.0,9.2,71,0.00,CLR,SKC,0.00,WeatherDisplay:10.37,2013-01-27 19:38:00,
2013-01-27 14:43:00,33.8,25.4,30.11,East,90,2.8,4.6,71,0.00,CLR,SKC,0.00,WeatherDisplay:10.37,2013-01-27 19:43:00,
2013-01-27 14:48:00,34.0,25.6,30.11,East,90,4.4,8.1,71,0.00,CLR,SKC,0.00,WeatherDisplay:10.37,2013-01-27 19:48:00,
2013-01-27 14:53:00,34.2,25.7,30.11,SE,135,4.0,5.8,71,0.00,CLR,SKC,0.00,WeatherDisplay:10.37,2013-01-27 19:53:00,
2013-01-27 14:58:00,34.2,25.7,30.10,SE,135,4.9,6.9,71,0.00,CLR,SKC,0.00,WeatherDisplay:10.37,2013-01-27 19:58:00,
2013-01-27 15:03:00,34.2,25.7,30.10,SE,135,2.0,4.6,71,0.00,CLR,SKC,0.00,WeatherDisplay:10.37,2013-01-27 20:03:00,
2013-01-27 15:08:00,34.0,25.6,30.10,SE,135,6.1,9.2,71,0.00,CLR,SKC,0.00,WeatherDisplay:10.37,2013-01-27 20:08:00,
2013-01-27 15:13:00,34.2,25.7,30.09,SE,135,2.3,6.0,71,0.00,CLR,SKC,0.00,WeatherDisplay:10.37,2013-01-27 20:13:00,
2013-01-27 15:18:00,34.3,26.2,30.09,SE,135,6.1,10.4,72,0.00,CLR,SKC,0.00,WeatherDisplay:10.37,2013-01-27 20:18:00,
2013-01-27 15:23:00,34.3,25.9,30.08,SE,135,6.5,11.5,71,0.00,CLR,SKC,0.00,WeatherDisplay:10.37,2013-01-27 20:23:00,
2013-01-27 15:28:00,34.3,26.2,30.09,SE,135,6.8,10.4,72,0.00,CLR,SKC,0.00,WeatherDisplay:10.37,2013-01-27 20:28:00,
2013-01-27 15:33:00,34.3,26.2,30.09,SE,135,4.6,5.1,72,0.00,CLR,SKC,0.00,WeatherDisplay:10.37,2013-01-27 20:33:00,
2013-01-27 15:38:00,34.5,26.4,30.08,ESE,112,3.2,4.6,72,0.00,CLR,SKC,0.00,WeatherDisplay:10.37,2013-01-27 20:38:00,
2013-01-27 15:43:00,34.5,26.4,30.08,SE,135,2.3,4.6,72,0.00,CLR,SKC,0.00,WeatherDisplay:10.37,2013-01-27 20:43:00,
2013-01-27 15:48:00,34.5,26.4,30.07,ESE,112,4.5,8.1,72,0.00,CLR,SKC,0.00,WeatherDisplay:10.37,2013-01-27 20:48:00,
2013-01-27 15:53:00,34.5,26.4,30.08,SE,135,3.1,4.6,72,0.00,CLR,SKC,0.00,WeatherDisplay:10.37,2013-01-27 20:53:00,
2013-01-27 15:58:00,34.7,26.6,30.07,SE,135,6.5,11.5,72,0.00,CLR,SKC,0.00,WeatherDisplay:10.37,2013-01-27 20:58:00,
2013-01-27 16:03:00,34.7,26.9,30.07,ENE,68,3.7,5.8,73,0.00,CLR,SKC,0.00,WeatherDisplay:10.37,2013-01-27 21:03:00,
2013-01-27 16:08:00,34.7,26.9,30.07,ESE,112,5.4,6.9,73,0.00,CLR,SKC,0.00,WeatherDisplay:10.37,2013-01-27 21:08:00,
2013-01-27 16:13:00,34.7,26.9,30.07,SSE,158,4.5,5.8,73,0.00,CLR,SKC,0.00,WeatherDisplay:10.37,2013-01-27 21:13:00,
2013-01-27 16:18:00,34.7,26.9,30.07,SE,135,3.2,5.8,73,0.00,CLR,SKC,0.00,WeatherDisplay:10.37,2013-01-27 21:18:00,
2013-01-27 16:23:00,34.7,26.9,30.08,ESE,112,2.4,3.5,73,0.00,CLR,SKC,0.00,WeatherDisplay:10.37,2013-01-27 21:23:00,
2013-01-27 16:28:00,34.7,26.9,30.09,ESE,112,3.7,5.8,73,0.00,CLR,SKC,0.00,WeatherDisplay:10.37,2013-01-27 21:28:00,
2013-01-27 16:33:00,34.7,26.9,30.07,SE,135,5.3,8.1,73,0.00,CLR,SKC,0.00,WeatherDisplay:10.37,2013-01-27 21:33:00,
2013-01-27 16:38:00,34.5,26.8,30.06,ESE,112,4.1,6.9,73,0.00,CLR,SKC,0.00,WeatherDisplay:10.37,2013-01-27 21:38:00,
2013-01-27 16:43:00,34.5,27.1,30.06,SSE,158,4.1,5.8,74,0.00,CLR,SKC,0.00,WeatherDisplay:10.37,2013-01-27 21:43:00,
2013-01-27 16:48:00,34.3,27.2,30.07,SSE,158,2.4,4.6,75,0.00,CLR,SKC,0.00,WeatherDisplay:10.37,2013-01-27 21:48:00,
2013-01-27 16:53:00,34.2,27.1,30.07,ESE,112,1.6,5.8,75,0.00,CLR,SKC,0.00,WeatherDisplay:10.37,2013-01-27 21:53:00,
2013-01-27 16:58:00,34.2,27.4,30.08,East,90,2.4,5.8,76,0.02,RA,SKC,0.02,WeatherDisplay:10.37,2013-01-27 21:58:00,
2013-01-27 17:03:00,34.0,27.5,30.08,East,90,2.0,3.5,77,0.02,RA,SKC,0.02,WeatherDisplay:10.37,2013-01-27 22:03:00,
2013-01-27 17:08:00,34.0,27.5,30.08,ESE,112,3.9,4.6,77,0.02,,SKC,0.02,WeatherDisplay:10.37,2013-01-27 22:08:00,
2013-01-27 17:13:00,33.8,27.7,30.07,SE,135,4.0,6.9,78,0.04,RA,SKC,0.04,WeatherDisplay:10.37,2013-01-27 22:13:00,
2013-01-27 17:18:00,33.6,27.8,30.07,East,90,5.0,6.9,79,0.04,RA,SKC,0.04,WeatherDisplay:10.37,2013-01-27 22:18:00,
2013-01-27 17:23:00,33.6,27.8,30.06,ESE,112,5.3,11.5,79,0.06,RA,SKC,0.06,WeatherDisplay:10.37,2013-01-27 22:23:00,
2013-01-27 17:28:00,33.6,28.1,30.07,East,90,2.9,5.8,80,0.06,RA,SKC,0.06,WeatherDisplay:10.37,2013-01-27 22:28:00,
2013-01-27 17:33:00,33.4,27.9,30.07,ENE,68,1.7,4.6,80,0.06,CLR,SKC,0.06,WeatherDisplay:10.37,2013-01-27 22:33:00,
2013-01-27 17:38:00,33.4,27.9,30.08,East,90,3.8,4.6,80,0.06,CLR,SKC,0.06,WeatherDisplay:10.37,2013-01-27 22:38:00,
2013-01-27 17:43:00,33.4,27.9,30.09,East,90,0.6,1.1,80,0.06,CLR,SKC,0.06,WeatherDisplay:10.37,2013-01-27 22:43:00,
2013-01-27 17:48:00,33.4,28.2,30.10,East,90,0.3,1.1,81,0.08,RA,SKC,0.08,WeatherDisplay:10.37,2013-01-27 22:48:00,
2013-01-27 17:53:00,33.4,28.2,30.08,East,90,2.5,3.5,81,0.08,RA,SKC,0.10,WeatherDisplay:10.37,2013-01-27 22:53:00,
2013-01-27 17:58:00,33.4,28.5,30.08,East,90,3.6,5.8,82,0.08,RA,SKC,0.10,WeatherDisplay:10.37,2013-01-27 22:58:00,
2013-01-27 18:03:00,33.4,28.5,30.08,East,90,4.2,5.8,82,0.08,RA,SKC,0.10,WeatherDisplay:10.37,2013-01-27 23:03:00,
2013-01-27 18:08:00,33.4,28.5,30.08,East,90,2.3,5.8,82,0.08,CLR,SKC,0.10,WeatherDisplay:10.37,2013-01-27 23:08:00,
2013-01-27 18:13:00,33.3,28.4,30.08,East,90,3.5,3.5,82,0.08,RA,SKC,0.12,WeatherDisplay:10.37,2013-01-27 23:13:00,
2013-01-27 18:18:00,33.3,28.7,30.07,East,90,6.0,8.1,83,0.08,RA,SKC,0.12,WeatherDisplay:10.37,2013-01-27 23:18:00,
2013-01-27 18:23:00,33.1,28.5,30.06,East,90,5.1,11.5,83,0.06,,SKC,0.12,WeatherDisplay:10.37,2013-01-27 23:23:00,
2013-01-27 18:28:00,33.1,28.5,30.06,East,90,3.7,5.8,83,0.08,RA,SKC,0.14,WeatherDisplay:10.37,2013-01-27 23:28:00,
2013-01-27 18:33:00,33.1,28.5,30.06,East,90,3.4,5.8,83,0.08,RA,SKC,0.14,WeatherDisplay:10.37,2013-01-27 23:33:00,
2013-01-27 18:38:00,33.1,28.8,30.06,East,90,5.9,10.4,84,0.08,CLR,SKC,0.14,WeatherDisplay:10.37,2013-01-27 23:38:00,
2013-01-27 18:43:00,33.1,28.8,30.06,East,90,3.7,8.1,84,0.08,CLR,SKC,0.14,WeatherDisplay:10.37,2013-01-27 23:43:00,
2013-01-27 18:48:00,33.1,28.8,30.05,East,90,5.1,8.1,84,0.06,CLR,SKC,0.14,WeatherDisplay:10.37,2013-01-27 23:48:00,
2013-01-27 18:53:00,33.1,28.8,30.05,East,90,2.8,3.5,84,0.08,RA,SKC,0.16,WeatherDisplay:10.37,2013-01-27 23:53:00,
2013-01-27 18:58:00,33.1,28.8,30.05,East,90,4.4,4.6,84,0.06,RA,SKC,0.16,WeatherDisplay:10.37,2013-01-27 23:58:00,
2013-01-27 19:03:00,33.3,28.9,30.04,East,90,7.3,10.4,84,0.06,,SKC,0.16,WeatherDisplay:10.37,2013-01-28 00:03:00,
2013-01-27 19:08:00,33.1,28.8,30.04,East,90,3.2,5.8,84,0.06,CLR,SKC,0.16,WeatherDisplay:10.37,2013-01-28 00:08:00,
2013-01-27 19:13:00,33.1,28.8,30.03,East,90,4.5,5.8,84,0.04,CLR,SKC,0.16,WeatherDisplay:10.37,2013-01-28 00:13:00,
2013-01-27 19:18:00,33.1,28.8,30.03,East,90,5.1,6.9,84,0.04,CLR,SKC,0.16,WeatherDisplay:10.37,2013-01-28 00:18:00,
2013-01-27 19:23:00,33.1,28.8,30.03,East,90,4.2,8.1,84,0.06,RA,SKC,0.18,WeatherDisplay:10.37,2013-01-28 00:23:00,
2013-01-27 19:28:00,33.1,28.8,30.03,East,90,3.4,5.8,84,0.04,RA,SKC,0.18,WeatherDisplay:10.37,2013-01-28 00:28:00,
2013-01-27 19:33:00,33.1,28.8,30.02,East,90,4.6,5.8,84,0.04,,SKC,0.18,WeatherDisplay:10.37,2013-01-28 00:33:00,
2013-01-27 19:38:00,33.1,28.8,30.02,East,90,2.4,3.5,84,0.04,CLR,SKC,0.18,WeatherDisplay:10.37,2013-01-28 00:38:00,
2013-01-27 19:43:00,33.3,28.9,30.02,East,90,4.0,6.9,84,0.04,CLR,SKC,0.18,WeatherDisplay:10.37,2013-01-28 00:43:00,
2013-01-27 19:48:00,33.3,28.9,30.02,East,90,3.0,6.3,84,0.04,CLR,SKC,0.18,WeatherDisplay:10.37,2013-01-28 00:48:00,
2013-01-27 19:53:00,33.3,28.9,30.01,East,90,4.8,6.9,84,0.02,CLR,SKC,0.18,WeatherDisplay:10.37,2013-01-28 00:53:00,
2013-01-27 19:58:00,33.3,28.9,30.00,East,90,4.7,10.4,84,0.02,CLR,SKC,0.18,WeatherDisplay:10.37,2013-01-28 00:58:00,
2013-01-27 20:03:00,33.4,29.1,30.00,East,90,4.6,10.4,84,0.02,CLR,SKC,0.18,WeatherDisplay:10.37,2013-01-28 01:03:00,
2013-01-27 20:08:00,33.4,29.1,30.00,East,90,5.9,8.1,84,0.02,CLR,SKC,0.18,WeatherDisplay:10.37,2013-01-28 01:08:00,
2013-01-27 20:13:00,33.4,29.1,30.00,East,90,4.3,7.4,84,0.02,CLR,SKC,0.18,WeatherDisplay:10.37,2013-01-28 01:13:00,
2013-01-27 20:18:00,33.4,29.1,30.00,East,90,6.9,11.5,84,0.02,CLR,SKC,0.18,WeatherDisplay:10.37,2013-01-28 01:18:00,
2013-01-27 20:23:00,33.4,29.1,30.00,East,90,2.6,5.8,84,0.00,CLR,SKC,0.18,WeatherDisplay:10.37,2013-01-28 01:23:00,
2013-01-27 20:28:00,33.6,29.3,29.99,East,90,1.6,3.5,84,0.00,CLR,SKC,0.18,WeatherDisplay:10.37,2013-01-28 01:28:00,
2013-01-27 20:33:00,33.6,29.3,29.98,East,90,4.6,5.8,84,0.00,CLR,SKC,0.18,WeatherDisplay:10.37,2013-01-28 01:33:00,
2013-01-27 20:38:00,33.6,29.3,29.99,East,90,4.9,8.1,84,0.00,CLR,SKC,0.18,WeatherDisplay:10.37,2013-01-28 01:38:00,
2013-01-27 20:43:00,33.6,29.3,29.98,East,90,3.7,8.1,84,0.00,CLR,SKC,0.18,WeatherDisplay:10.37,2013-01-28 01:43:00,
2013-01-27 20:48:00,33.6,29.3,29.99,East,90,5.0,9.2,84,0.00,CLR,SKC,0.18,WeatherDisplay:10.37,2013-01-28 01:48:00,
2013-01-27 20:53:00,33.6,29.3,29.98,East,90,2.2,5.8,84,0.00,CLR,SKC,0.18,WeatherDisplay:10.37,2013-01-28 01:53:00,
2013-01-27 20:58:00,33.6,29.3,29.97,East,90,5.0,8.1,84,0.00,CLR,SKC,0.18,WeatherDisplay:10.37,2013-01-28 01:58:00,
2013-01-27 21:03:00,33.6,29.3,29.97,East,90,2.9,4.6,84,0.00,CLR,SKC,0.18,WeatherDisplay:10.37,2013-01-28 02:03:00,
2013-01-27 21:08:00,33.8,29.5,29.97,East,90,2.1,5.8,84,0.00,CLR,SKC,0.18,WeatherDisplay:10.37,2013-01-28 02:08:00,
2013-01-27 21:13:00,33.8,29.5,29.97,East,90,3.5,5.8,84,0.00,CLR,SKC,0.18,WeatherDisplay:10.37,2013-01-28 02:13:00,
2013-01-27 21:18:00,33.8,29.5,29.96,East,90,5.3,8.1,84,0.00,CLR,SKC,0.18,WeatherDisplay:10.37,2013-01-28 02:18:00,
2013-01-27 21:23:00,34.0,29.7,29.96,East,90,4.4,8.1,84,0.00,CLR,SKC,0.18,WeatherDisplay:10.37,2013-01-28 02:23:00,
2013-01-27 21:28:00,34.0,29.7,29.95,East,90,5.2,8.3,84,0.00,CLR,SKC,0.18,WeatherDisplay:10.37,2013-01-28 02:28:00,
2013-01-27 21:33:00,34.0,29.7,29.95,East,90,3.5,8.1,84,0.00,CLR,SKC,0.18,WeatherDisplay:10.37,2013-01-28 02:33:00,
2013-01-27 21:38:00,34.0,29.7,29.94,East,90,5.7,10.4,84,0.00,CLR,SKC,0.18,WeatherDisplay:10.37,2013-01-28 02:38:00,
2013-01-27 21:43:00,34.0,29.7,29.94,East,90,4.6,6.9,84,0.00,CLR,SKC,0.18,WeatherDisplay:10.37,2013-01-28 02:43:00,
2013-01-27 21:48:00,34.0,29.7,29.94,East,90,4.0,5.8,84,0.00,CLR,SKC,0.18,WeatherDisplay:10.37,2013-01-28 02:48:00,
2013-01-27 21:53:00,34.0,29.7,29.93,East,90,2.9,5.8,84,0.00,CLR,SKC,0.18,WeatherDisplay:10.37,2013-01-28 02:53:00,
2013-01-27 21:58:00,34.2,29.8,29.93,East,90,4.6,6.9,84,0.02,RA,SKC,0.20,WeatherDisplay:10.37,2013-01-28 02:58:00,
2013-01-27 22:03:00,34.2,29.8,29.94,East,90,3.7,8.1,84,0.02,RA,SKC,0.20,WeatherDisplay:10.37,2013-01-28 03:03:00,
2013-01-27 22:08:00,34.3,29.7,29.94,East,90,1.9,5.8,83,0.02,CLR,SKC,0.20,WeatherDisplay:10.37,2013-01-28 03:08:00,
2013-01-27 22:13:00,34.3,29.7,29.93,SSW,202,3.1,4.9,83,0.02,CLR,SKC,0.20,WeatherDisplay:10.37,2013-01-28 03:13:00,
2013-01-27 22:18:00,34.5,29.9,29.94,SE,135,2.4,3.5,83,0.02,CLR,SKC,0.20,WeatherDisplay:10.37,2013-01-28 03:18:00,
2013-01-27 22:23:00,34.5,29.9,29.93,SE,135,4.5,5.8,83,0.02,CLR,SKC,0.20,WeatherDisplay:10.37,2013-01-28 03:23:00,
2013-01-27 22:28:00,34.7,30.1,29.94,SE,135,2.2,4.6,83,0.02,CLR,SKC,0.20,WeatherDisplay:10.37,2013-01-28 03:28:00,
2013-01-27 22:33:00,34.7,30.1,29.93,SE,135,3.1,3.6,83,0.02,CLR,SKC,0.20,WeatherDisplay:10.37,2013-01-28 03:33:00,
2013-01-27 22:38:00,34.9,30.2,29.93,SE,135,3.8,5.8,83,0.02,CLR,SKC,0.20,WeatherDisplay:10.37,2013-01-28 03:38:00,
2013-01-27 22:43:00,34.9,30.2,29.94,ESE,112,4.2,4.6,83,0.02,CLR,SKC,0.20,WeatherDisplay:10.37,2013-01-28 03:43:00,
2013-01-27 22:48:00,34.9,30.2,29.94,SE,135,2.5,5.8,83,0.02,CLR,SKC,0.20,WeatherDisplay:10.37,2013-01-28 03:48:00,
2013-01-27 22:53:00,35.2,30.6,29.94,SE,135,2.6,4.6,83,0.02,CLR,SKC,0.20,WeatherDisplay:10.37,2013-01-28 03:53:00,
2013-01-27 22:58:00,35.2,30.3,29.94,ESE,112,5.3,6.9,82,0.00,CLR,SKC,0.20,WeatherDisplay:10.37,2013-01-28 03:58:00,
2013-01-27 23:03:00,35.4,30.5,29.93,South,180,2.6,5.8,82,0.00,CLR,SKC,0.20,WeatherDisplay:10.37,2013-01-28 04:03:00,
2013-01-27 23:08:00,35.4,30.5,29.93,SE,135,3.7,5.8,82,0.00,CLR,SKC,0.20,WeatherDisplay:10.37,2013-01-28 04:08:00,
2013-01-27 23:13:00,35.4,30.5,29.93,East,90,2.6,4.6,82,0.00,CLR,SKC,0.20,WeatherDisplay:10.37,2013-01-28 04:13:00,
2013-01-27 23:18:00,35.8,30.8,29.93,SE,135,4.2,10.4,82,0.00,CLR,SKC,0.20,WeatherDisplay:10.37,2013-01-28 04:18:00,
2013-01-27 23:23:00,35.8,30.8,29.93,SE,135,5.2,12.7,82,0.00,CLR,SKC,0.20,WeatherDisplay:10.37,2013-01-28 04:23:00,
2013-01-27 23:28:00,35.8,30.8,29.93,SE,135,3.3,5.8,82,0.00,CLR,SKC,0.20,WeatherDisplay:10.37,2013-01-28 04:28:00,
2013-01-27 23:33:00,35.8,30.8,29.93,ESE,112,5.0,9.2,82,0.00,CLR,SKC,0.20,WeatherDisplay:10.37,2013-01-28 04:33:00,
2013-01-27 23:38:00,35.8,30.8,29.93,SE,135,4.3,4.6,82,0.00,CLR,SKC,0.20,WeatherDisplay:10.37,2013-01-28 04:38:00,
2013-01-27 23:43:00,36.0,30.7,29.93,SE,135,3.7,6.9,81,0.00,CLR,SKC,0.20,WeatherDisplay:10.37,2013-01-28 04:43:00,
2013-01-27 23:48:00,36.0,30.7,29.92,SSE,158,5.4,6.9,81,0.00,CLR,SKC,0.20,WeatherDisplay:10.37,2013-01-28 04:48:00,
2013-01-27 23:53:00,36.1,30.9,29.93,SE,135,5.7,8.1,81,0.00,CLR,SKC,0.20,WeatherDisplay:10.37,2013-01-28 04:53:00,
2013-01-27 23:58:00,36.1,30.9,29.92,SE,135,8.8,10.4,81,0.00,CLR,SKC,0.20,WeatherDisplay:10.37,2013-01-28 04:58:00,